Find Starlink 31983

NORAD ID: 60602 Int'l Des: 2024-150 Owner: SPXS Country: US Constellation: starlink operational
LEOCIRCULAR

現在のビュー

3D地球を読み込み中...

About Starlink 31983

Starlink 31983 (NORAD 60602) is a starlink constellation satellite (v2 mini) launched Aug 20, 2024 by SPXS of US. It operates in LEO, CIRCULAR orbit with a mass of 730.00 kg.

次回通過

Passes for default location (London). Set your location on the main map for personalized predictions.

高度履歴

Loading altitude history...

軌道要素

1 60602U 24150V 26264.95472211 .00001144 00000-0 45007-4 0 9997
2 60602 53.1589 110.9124 0001317 91.9735 268.1418 15.34388565118076
Epoch: Sep 21, 2026 • Age: 23 hours

現在のステータス

高度 475.2 km
遠地点 / 近地点 N/A
速度 7.63 km/s
衛星直下点 -36.78°S, 8.3°W
打ち上げ日 Aug 20, 2024
運用期間 2 years
タイプ internet

技術仕様

分類 Payload
質量 730.00 kg
乾燥質量 700.00 kg
長さ 0.30 m
スパン 29.00 m
形状 ? Box + pan
製造者 SPXS
バスタイプ Starlink V2M
フェーズステータス In Orbit
所有者/国 SPXS/US

Most Searched